VE6CPK-13 Weather Reports


Display with metric or nautical units.
time (UTC)temp
F
wind
direction
speed
MPH
gust
MPH
rain 1hr
in
rain 24hr
in
rain mn
in
humidity
%
barometer
mb
20260509134055 51 288 0.0 2.0 0.00 0.00 0.00 69 1008.8
20260509133555 51 288 0.0 2.0 0.00 0.00 0.00 69 1008.8
20260509133055 50 288 0.0 2.0 0.00 0.00 0.00 70 1008.8
20260509132555 50 288 0.0 2.0 0.00 0.00 0.00 70 1008.7
20260509132055 50 288 0.0 2.0 0.00 0.00 0.00 70 1008.7
20260509131555 50 288 0.0 2.0 0.00 0.00 0.00 70 1008.7
20260509131055 49 288 0.0 2.0 0.00 0.00 0.00 69 1008.6
20260509130554 49 288 0.0 2.0 0.00 0.00 0.00 68 1008.5
20260509130055 49 288 0.0 2.0 0.00 0.00 0.00 66 1008.5
20260509125555 48 288 0.0 2.0 0.00 0.00 0.00 62 1008.6
20260509125056 48 288 0.0 2.0 0.00 0.00 0.00 58 1008.6
20260509124554 48 288 0.0 2.0 0.00 0.00 0.00 54 1008.5
20260509124054 48 288 0.0 2.0 0.00 0.00 0.00 52 1008.5
20260509123554 48 288 0.0 2.0 0.00 0.00 0.00 52 1008.4
20260509123055 48 288 0.0 2.0 0.00 0.00 0.00 51 1008.4
20260509122555 48 288 0.0 2.0 0.00 0.00 0.00 50 1008.4
20260509122055 49 288 0.0 2.0 0.00 0.00 0.00 50 1008.3
20260509121555 49 288 0.0 2.0 0.00 0.00 0.00 50 1008.3
20260509121056 49 288 0.0 2.0 0.00 0.00 0.00 49 1008.4
20260509120556 49 288 0.0 2.0 0.00 0.00 0.00 49 1008.2
20260509120054 50 288 0.0 2.0 0.00 0.00 0.00 49 1008.2
20260509115555 50 288 0.0 2.0 0.00 0.00 0.00 48 1008.2
20260509115055 50 288 0.0 2.0 0.00 0.00 0.00 48 1008.0
20260509114555 50 288 0.0 2.0 0.00 0.00 0.00 48 1008.0
20260509114055 51 288 0.0 2.0 0.00 0.00 0.00 47 1008.0
20260509113556 51 288 0.0 2.0 0.00 0.00 0.00 47 1007.9
20260509113056 51 288 0.0 2.0 0.00 0.00 0.00 46 1007.8
20260509112556 51 288 0.0 2.0 0.00 0.00 0.00 46 1007.8
20260509112056 51 288 0.0 2.0 0.00 0.00 0.00 45 1007.8
20260509111556 51 288 0.0 2.0 0.00 0.00 0.00 45 1007.8
20260509111056 51 288 0.0 2.0 0.00 0.00 0.00 45 1007.8
20260509110554 51 288 0.0 2.0 0.00 0.00 0.00 45 1007.8
20260509110054 51 288 0.0 2.0 0.00 0.00 0.00 45 1007.8
20260509105555 51 288 0.0 2.0 0.00 0.00 0.00 44 1007.8
20260509105055 51 288 0.0 2.0 0.00 0.00 0.00 44 1007.8
20260509104555 51 288 0.0 2.0 0.00 0.00 0.00 45 1007.8
20260509104056 51 288 0.0 2.0 0.00 0.00 0.00 44 1007.8
20260509103556 51 288 0.0 2.0 0.00 0.00 0.00 46 1007.8
20260509103054 51 288 0.0 2.0 0.00 0.00 0.00 44 1007.8
20260509102554 51 288 0.0 2.0 0.00 0.00 0.00 44 1007.7
20260509102054 52 288 0.0 2.0 0.00 0.00 0.00 45 1007.7
20260509101554 52 288 0.0 2.0 0.00 0.00 0.00 45 1007.7
20260509101054 52 288 0.0 2.0 0.00 0.00 0.00 45 1007.6
20260509100556 52 288 0.0 2.0 0.00 0.00 0.00 44 1007.6
20260509100055 52 288 0.0 2.0 0.00 0.00 0.00 44 1007.6
20260509095554 52 288 0.0 2.0 0.00 0.00 0.00 43 1007.5
20260509095054 52 288 0.0 2.0 0.00 0.00 0.00 43 1007.5
20260509094554 52 288 0.0 2.0 0.00 0.00 0.00 43 1007.4
20260509094055 52 288 0.0 2.0 0.00 0.00 0.00 42 1007.3
20260509093555 52 288 0.0 2.0 0.00 0.00 0.00 42 1007.4
20260509093055 52 288 0.0 2.0 0.00 0.00 0.00 41 1007.3
20260509092556 52 288 0.0 2.0 0.00 0.00 0.00 42 1007.3
20260509092056 53 288 0.0 2.0 0.00 0.00 0.00 41 1007.3
20260509091554 53 288 0.0 2.0 0.00 0.00 0.00 42 1007.3
20260509091054 53 288 0.0 2.0 0.00 0.00 0.00 41 1007.4
20260509090554 53 288 0.0 2.0 0.00 0.00 0.00 41 1007.4
20260509090055 53 288 0.0 2.0 0.00 0.00 0.00 41 1007.4
20260509085555 53 288 0.0 2.0 0.00 0.00 0.00 41 1007.4
20260509085055 53 288 0.0 2.0 0.00 0.00 0.00 41 1007.4
20260509084555 53 288 0.0 2.0 0.00 0.00 0.00 41 1007.4
20260509084055 53 287 0.0 2.0 0.00 0.00 0.00 41 1007.4
20260509083555 53 341 0.0 2.0 0.00 0.00 0.00 42 1007.3
20260509083055 53 341 0.0 2.0 0.00 0.00 0.00 42 1007.4
20260509082555 53 341 0.0 2.0 0.00 0.00 0.00 42 1007.3
20260509082055 53 341 0.0 2.0 0.00 0.00 0.00 42 1007.3
20260509081554 53 341 0.0 2.0 0.00 0.00 0.00 41 1007.3
20260509081054 53 341 0.0 2.0 0.00 0.00 0.00 42 1007.3
20260509080555 54 341 0.0 2.0 0.00 0.00 0.00 41 1007.3
20260509080054 54 341 0.0 2.0 0.00 0.00 0.00 41 1007.3
20260509075554 54 341 0.0 2.0 0.00 0.00 0.00 40 1007.2
20260509075054 55 341 0.0 2.0 0.00 0.00 0.00 40 1007.2
20260509074554 55 341 0.0 2.0 0.00 0.00 0.00 39 1007.1
20260509074054 55 341 0.0 2.0 0.00 0.00 0.00 39 1007.0
20260509073554 55 341 0.0 2.0 0.00 0.00 0.00 39 1007.1
20260509073054 55 341 0.0 2.0 0.00 0.00 0.00 39 1007.1
20260509072554 55 341 0.0 2.0 0.00 0.00 0.00 38 1007.1
20260509072054 55 341 0.0 2.0 0.00 0.00 0.00 38 1007.0
20260509071554 56 341 0.0 2.0 0.00 0.00 0.00 38 1007.0
20260509071054 56 341 0.0 2.0 0.00 0.00 0.00 38 1007.0
20260509070554 56 341 0.0 2.0 0.00 0.00 0.00 37 1006.9
20260509070054 56 341 0.0 2.0 0.00 0.00 0.00 37 1006.9
20260509065556 56 341 0.0 2.0 0.00 0.00 0.00 37 1006.9
20260509065055 56 341 0.0 2.0 0.00 0.00 0.00 37 1006.9
20260509064553 56 341 0.0 2.0 0.00 0.00 0.00 36 1006.9
20260509064055 56 341 0.0 2.0 0.00 0.00 0.00 36 1006.8
20260509063553 56 340 0.0 2.0 0.00 0.00 0.00 36 1006.9
20260509063053 57 340 0.0 1.0 0.00 0.00 0.00 36 1006.9
20260509062554 57 340 0.0 1.0 0.00 0.00 0.00 37 1006.8
20260509062054 57 340 0.0 1.0 0.00 0.00 0.00 35 1006.8
20260509061554 57 340 0.0 1.0 0.00 0.00 0.00 36 1006.8
20260509061054 57 340 0.0 1.0 0.00 0.00 0.00 34 1006.8
20260509060554 58 340 0.0 0.0 0.00 0.00 0.00 35 1006.7
20260509060054 58 340 0.0 0.0 0.00 0.00 0.00 34 1006.7
20260509055555 58 351 0.0 10.0 0.00 0.00 0.00 33 1006.8
20260509055055 58 351 0.0 10.0 0.00 0.00 0.00 33 1006.8
20260509054555 58 351 0.0 10.0 0.00 0.00 0.00 33 1006.7
20260509054054 58 351 0.0 10.0 0.00 0.00 0.00 35 1006.7
20260509053555 58 351 0.0 10.0 0.00 0.00 0.00 34 1006.6
20260509053055 58 351 0.0 10.0 0.00 0.00 0.00 33 1006.6
20260509052555 58 351 0.0 10.0 0.00 0.00 0.00 32 1006.5
20260509052054 59 17 1.0 10.0 0.00 0.00 0.00 32 1006.5
20260509051554 59 5 1.0 10.0 0.00 0.00 0.00 32 1006.4
20260509051054 59 17 0.0 10.0 0.00 0.00 0.00 32 1006.4
20260509050553 59 24 2.0 10.0 0.00 0.00 0.00 32 1006.3
20260509050053 59 30 0.0 10.0 0.00 0.00 0.00 32 1006.2
20260509045555 59 30 0.0 10.0 0.00 0.00 0.00 32 1006.2
20260509045055 59 30 0.0 10.0 0.00 0.00 0.00 32 1006.2
20260509044555 59 30 0.0 10.0 0.00 0.00 0.00 32 1006.1
20260509044053 59 30 0.0 10.0 0.00 0.00 0.00 32 1006.1
20260509043553 60 30 0.0 10.0 0.00 0.00 0.00 31 1006.1
20260509043054 60 30 0.0 10.0 0.00 0.00 0.00 32 1006.0
20260509042554 60 30 0.0 10.0 0.00 0.00 0.00 31 1006.0
20260509042053 60 30 0.0 10.0 0.00 0.00 0.00 30 1005.9
20260509041553 60 36 0.0 10.0 0.00 0.00 0.00 30 1005.9
20260509041053 60 36 0.0 10.0 0.00 0.00 0.00 30 1005.9
20260509040553 60 36 0.0 10.0 0.00 0.00 0.00 30 1005.8
20260509040054 60 36 0.0 10.0 0.00 0.00 0.00 30 1005.8
20260509035554 60 36 0.0 10.0 0.00 0.00 0.00 30 1005.8
20260509035053 60 36 0.0 10.0 0.00 0.00 0.00 30 1005.7
20260509034553 60 22 1.0 10.0 0.00 0.00 0.00 30 1005.7
20260509034054 61 26 0.0 10.0 0.00 0.00 0.00 30 1005.6
20260509033553 61 26 0.0 10.0 0.00 0.00 0.00 29 1005.5
20260509033054 61 26 1.0 10.0 0.00 0.00 0.00 29 1005.4
20260509032554 61 9 1.0 10.0 0.00 0.00 0.00 29 1005.3
20260509032053 61 57 0.0 10.0 0.00 0.00 0.00 28 1005.2
20260509031553 61 24 1.0 10.0 0.00 0.00 0.00 29 1005.1
20260509031054 61 33 0.0 10.0 0.00 0.00 0.00 29 1005.0
20260509030553 61 34 0.0 10.0 0.00 0.00 0.00 29 1004.9
20260509030052 61 34 0.0 10.0 0.00 0.00 0.00 29 1004.9
20260509025553 61 34 1.0 10.0 0.00 0.00 0.00 29 1004.8
20260509025053 62 12 1.0 10.0 0.00 0.00 0.00 29 1004.7
20260509024553 62 355 1.0 10.0 0.00 0.00 0.00 28 1004.6
20260509024053 62 24 1.0 10.0 0.00 0.00 0.00 28 1004.6
20260509023554 62 20 0.0 10.0 0.00 0.00 0.00 28 1004.5
20260509023054 62 5 1.0 10.0 0.00 0.00 0.00 28 1004.4
20260509022554 62 6 1.0 10.0 0.00 0.00 0.00 28 1004.4
20260509022054 62 4 3.0 10.0 0.00 0.00 0.00 28 1004.3
20260509021554 62 358 1.0 10.0 0.00 0.00 0.00 28 1004.3
20260509021053 63 23 1.0 10.0 0.00 0.00 0.00 28 1004.2
20260509020554 63 26 1.0 10.0 0.00 0.00 0.00 28 1004.2
20260509020054 63 23 1.0 10.0 0.00 0.00 0.00 28 1004.1
20260509015554 63 17 1.0 10.0 0.00 0.00 0.00 28 1004.0
20260509015054 63 7 2.0 10.0 0.00 0.00 0.00 28 1003.9
20260509014553 63 21 2.0 10.0 0.00 0.00 0.00 28 1003.9
20260509014053 63 21 2.0 10.0 0.00 0.00 0.00 28 1004.0
20260509013553 63 15 2.0 10.0 0.00 0.00 0.00 28 1003.9
20260509013052 63 7 1.0 10.0 0.00 0.00 0.00 27 1003.9
20260509012553 63 37 2.0 10.0 0.00 0.00 0.00 27 1003.9
20260509012053 64 18 2.0 10.0 0.00 0.00 0.00 27 1003.8
20260509011554 64 357 2.0 10.0 0.00 0.00 0.00 27 1003.8
20260509011053 64 15 2.0 10.0 0.00 0.00 0.00 27 1003.8
20260509010553 64 355 1.0 10.0 0.00 0.00 0.00 27 1003.7
20260509010052 64 24 1.0 10.0 0.00 0.00 0.00 27 1003.7
20260509005554 64 4 2.0 10.0 0.00 0.00 0.00 27 1003.6
20260509005053 64 26 2.0 10.0 0.00 0.00 0.00 26 1003.5
20260509004552 65 5 1.0 10.0 0.00 0.00 0.00 26 1003.5
20260509004053 65 36 1.0 10.0 0.00 0.00 0.00 26 1003.4
20260509003554 65 38 2.0 10.0 0.00 0.00 0.00 26 1003.4
20260509003053 65 358 2.0 10.0 0.00 0.00 0.00 26 1003.4
20260509002554 65 7 3.0 10.0 0.00 0.00 0.00 25 1003.4
20260509002054 66 27 3.0 10.0 0.00 0.00 0.00 25 1003.4
20260509001552 66 12 2.0 10.0 0.00 0.00 0.00 24 1003.4
20260509001054 66 23 3.0 10.0 0.00 0.00 0.00 25 1003.4
20260509000553 66 19 3.0 10.0 0.00 0.00 0.00 24 1003.4
20260509000053 66 14 2.0 10.0 0.00 0.00 0.00 24 1003.4
20260508235553 66 42 1.0 10.0 0.00 0.00 0.00 24 1003.4
20260508235053 66 13 1.0 10.0 0.00 0.00 0.00 25 1003.4
20260508234553 66 10 3.0 10.0 0.00 0.00 0.00 24 1003.4
20260508234053 66 20 2.0 10.0 0.00 0.00 0.00 24 1003.4
20260508233553 66 25 2.0 10.0 0.00 0.00 0.00 24 1003.5
20260508233052 66 6 3.0 8.0 0.00 0.00 0.00 24 1003.4
20260508232552 66 19 1.0 8.0 0.00 0.00 0.00 25 1003.3
20260508232052 66 15 1.0 8.0 0.00 0.00 0.00 24 1003.3
20260508231552 66 7 2.0 8.0 0.00 0.00 0.00 24 1003.3
20260508231052 67 17 2.0 8.0 0.00 0.00 0.00 24 1003.3
20260508230552 67 29 3.0 8.0 0.00 0.00 0.00 24 1003.3
20260508230054 67 34 3.0 8.0 0.00 0.00 0.00 24 1003.3
20260508225553 67 11 1.0 8.0 0.00 0.00 0.00 23 1003.2
20260508225053 67 30 2.0 8.0 0.00 0.00 0.00 24 1003.2
20260508224553 67 3 5.0 8.0 0.00 0.00 0.00 23 1003.2
20260508224053 67 18 0.0 8.0 0.00 0.00 0.00 23 1003.2
20260508223553 67 0 0.0 8.0 0.00 0.00 0.00 23 1003.1
20260508223053 68 358 1.0 8.0 0.00 0.00 0.00 23 1003.0
20260508222552 68 5 0.0 8.0 0.00 0.00 0.00 23 1003.0
20260508222052 68 12 1.0 8.0 0.00 0.00 0.00 23 1003.0
20260508221552 68 343 1.0 8.0 0.00 0.00 0.00 23 1003.0
20260508221052 68 343 1.0 8.0 0.00 0.00 0.00 23 1003.0
20260508220552 69 7 1.0 8.0 0.00 0.00 0.00 22 1002.9
20260508220052 69 0 0.0 8.0 0.00 0.00 0.00 23 1003.0
20260508215552 69 358 0.0 8.0 0.00 0.00 0.00 23 1003.0
20260508215052 70 350 0.0 8.0 0.00 0.00 0.00 22 1003.0
20260508214553 70 355 0.0 8.0 0.00 0.00 0.00 22 1003.0
20260508214053 70 5 1.0 8.0 0.00 0.00 0.00 22 1003.0
20260508213553 70 355 1.0 8.0 0.00 0.00 0.00 22 1003.0
20260508213052 71 5 1.0 8.0 0.00 0.00 0.00 22 1003.1
20260508212552 70 11 0.0 8.0 0.00 0.00 0.00 23 1003.0
20260508212052 70 10 0.0 8.0 0.00 0.00 0.00 22 1003.1
20260508211553 70 355 0.0 8.0 0.00 0.00 0.00 22 1003.1
20260508211053 70 355 1.0 8.0 0.00 0.00 0.00 23 1003.1
20260508210553 70 355 0.0 8.0 0.00 0.00 0.00 23 1003.1
20260508210053 70 355 1.0 8.0 0.00 0.00 0.00 22 1003.1
20260508205552 70 355 0.0 8.0 0.00 0.00 0.00 23 1003.2
20260508205052 71 5 0.0 8.0 0.00 0.00 0.00 22 1003.1
20260508204552 71 5 1.0 8.0 0.00 0.00 0.00 22 1003.2
20260508204053 71 2 0.0 8.0 0.00 0.00 0.00 23 1003.2
20260508203552 71 1 1.0 8.0 0.00 0.00 0.00 22 1003.3
20260508203052 71 0 0.0 8.0 0.00 0.00 0.00 23 1003.4
20260508202552 71 0 0.0 8.0 0.00 0.00 0.00 23 1003.3
20260508202052 70 0 0.0 8.0 0.00 0.00 0.00 23 1003.3
20260508201552 70 0 1.0 8.0 0.00 0.00 0.00 22 1003.3
20260508201052 70 24 0.0 8.0 0.00 0.00 0.00 22 1003.3
20260508200553 70 6 1.0 8.0 0.00 0.00 0.00 22 1003.3
20260508200053 70 20 0.0 8.0 0.00 0.00 0.00 23 1003.3
20260508195553 70 8 3.0 8.0 0.00 0.00 0.00 22 1003.4
20260508195052 70 32 2.0 8.0 0.00 0.00 0.00 21 1003.4
20260508194552 70 340 0.0 8.0 0.00 0.00 0.00 23 1003.5
20260508194051 70 3 3.0 8.0 0.00 0.00 0.00 22 1003.5
20260508193551 70 355 0.0 8.0 0.00 0.00 0.00 22 1003.6
20260508193051 70 22 2.0 8.0 0.00 0.00 0.00 22 1003.6
20260508192552 70 30 1.0 8.0 0.00 0.00 0.00 22 1003.6
20260508192051 71 335 1.0 8.0 0.00 0.00 0.00 21 1003.7
20260508191553 70 27 1.0 8.0 0.00 0.00 0.00 22 1003.8
20260508191052 70 28 0.0 8.0 0.00 0.00 0.00 23 1003.9
20260508190551 70 12 0.0 8.0 0.00 0.00 0.00 24 1004.0
20260508190053 70 12 1.0 8.0 0.00 0.00 0.00 23 1004.0
20260508185553 70 0 1.0 8.0 0.00 0.00 0.00 23 1004.1
20260508185053 69 355 1.0 8.0 0.00 0.00 0.00 22 1004.2
20260508184552 70 22 1.0 8.0 0.00 0.00 0.00 23 1004.3
20260508184053 70 7 2.0 8.0 0.00 0.00 0.00 23 1004.3
20260508183551 70 339 0.0 8.0 0.00 0.00 0.00 23 1004.3
20260508183053 70 334 3.0 8.0 0.00 0.00 0.00 22 1004.5
20260508182552 69 34 0.0 8.0 0.00 0.00 0.00 24 1004.4
20260508182052 69 26 0.0 8.0 0.00 0.00 0.00 24 1004.4
20260508181552 68 21 0.0 8.0 0.00 0.00 0.00 23 1004.4
20260508181053 68 23 0.0 8.0 0.00 0.00 0.00 24 1004.5
20260508180552 67 341 0.0 8.0 0.00 0.00 0.00 25 1004.6
20260508180052 67 15 1.0 8.0 0.00 0.00 0.00 24 1004.6
20260508175553 67 66 0.0 8.0 0.00 0.00 0.00 25 1004.5
20260508175052 67 66 0.0 8.0 0.00 0.00 0.00 25 1004.6
20260508174552 67 66 0.0 8.0 0.00 0.00 0.00 25 1004.6
20260508174056 66 9 1.0 8.0 0.00 0.00 0.00 26 1004.7
20260508173557 66 14 0.0 8.0 0.00 0.00 0.00 25 1004.6
20260508173056 66 117 0.0 8.0 0.00 0.00 0.00 27 1004.6
20260508172557 65 59 0.0 8.0 0.00 0.00 0.00 26 1004.6
20260508172057 65 17 1.0 8.0 0.00 0.00 0.00 26 1004.7
20260508171556 65 9 1.0 8.0 0.00 0.00 0.00 26 1004.8
20260508171056 64 29 0.0 8.0 0.00 0.00 0.00 27 1004.7
20260508170555 65 32 0.0 8.0 0.00 0.00 0.00 27 1004.8
20260508170057 65 41 0.0 8.0 0.00 0.00 0.00 26 1004.9
20260508165557 64 22 0.0 8.0 0.00 0.00 0.00 26 1004.9
20260508165056 64 20 0.0 8.0 0.00 0.00 0.00 27 1004.9
20260508164555 64 70 0.0 8.0 0.00 0.00 0.00 27 1004.9
20260508164055 64 0 0.0 8.0 0.00 0.00 0.00 28 1004.8
20260508163557 64 10 0.0 8.0 0.00 0.00 0.00 29 1004.9
20260508163055 64 9 0.0 8.0 0.00 0.00 0.00 31 1004.9
20260508162555 63 17 0.0 8.0 0.00 0.00 0.00 30 1004.9
20260508162057 62 80 0.0 8.0 0.00 0.00 0.00 31 1004.9
20260508161556 62 24 0.0 8.0 0.00 0.00 0.00 32 1004.9
20260508161056 61 332 0.0 8.0 0.00 0.00 0.00 32 1004.9
20260508160556 61 5 1.0 8.0 0.00 0.00 0.00 32 1005.0
20260508160056 60 5 0.0 8.0 0.00 0.00 0.00 33 1005.0
20260508155556 60 338 1.0 8.0 0.00 0.00 0.00 34 1005.0
20260508155114 59 5 0.0 8.0 0.00 0.00 0.00 35 1004.9
20260508154614 59 9 0.0 6.0 0.00 0.00 0.00 34 1005.0
20260508154115 58 9 0.0 6.0 0.00 0.00 0.00 35 1005.0
20260508153615 58 9 1.0 6.0 0.00 0.00 0.00 34 1004.9
20260508153116 58 119 0.0 6.0 0.00 0.00 0.00 35 1004.9
20260508152614 58 123 0.0 6.0 0.00 0.00 0.00 35 1004.9
20260508152114 57 123 0.0 6.0 0.00 0.00 0.00 36 1005.0
20260508151614 57 40 0.0 6.0 0.00 0.00 0.00 36 1005.0
20260508151114 57 48 1.0 6.0 0.00 0.00 0.00 36 1005.0
20260508150614 57 335 0.0 6.0 0.00 0.00 0.00 35 1005.0
20260508150114 57 342 1.0 6.0 0.00 0.00 0.00 36 1005.0
20260508145614 56 15 0.0 4.0 0.00 0.00 0.00 35 1004.9
20260508145115 56 15 0.0 4.0 0.00 0.00 0.00 36 1004.9
20260508144615 55 61 0.0 4.0 0.00 0.00 0.00 36 1004.9
20260508144115 55 66 0.0 4.0 0.00 0.00 0.00 36 1005.0
20260508143615 55 77 0.0 4.0 0.00 0.00 0.00 36 1005.0
20260508143114 54 77 0.0 4.0 0.00 0.00 0.00 36 1004.9
20260508142614 54 94 0.0 4.0 0.00 0.00 0.00 37 1004.9
20260508142114 54 94 0.0 4.0 0.00 0.00 0.00 38 1004.9
20260508141614 53 94 0.0 4.0 0.00 0.00 0.00 39 1005.0
20260508141114 53 94 0.0 4.0 0.00 0.00 0.00 39 1005.0
20260508140614 53 94 0.0 4.0 0.00 0.00 0.00 39 1005.1
20260508140113 53 94 0.0 4.0 0.00 0.00 0.00 40 1005.2
20260508135615 52 142 0.0 4.0 0.00 0.00 0.00 41 1005.2
20260508135115 52 142 0.0 4.0 0.00 0.00 0.00 40 1005.2
20260508134615 52 142 0.0 4.0 0.00 0.00 0.00 40 1005.1